Location: El Álamo
(40.2307°N, 3.9945°W)
Time: 03:30:20
(UTC+00:00)

Cosmos 1697 Rocket - Pass Details

Date: 19 May 2025
Orbit: 830 x 844 km, 71.0° (Epoch: 23 June)

Event Time Altitude Azimuth Distance (km) Brightness Sun altitude
Rises 23:03:10 0° 321° (NW) 3,404 6.9 -27.7°
Reaches altitude 10° 23:06:14 10° 305° (NW) 2,466 5.7 -27.8°
Maximum altitude 23:10:12 20° 260° (W) 1,860 4.5 -28.1°
Enters shadow 23:10:50 20° 251° (WSW) 1,878 4.4 -28.1°
